Other Public Products
Issued by NWS Grand Forks, ND

Home | Current Version | Previous Version | Text Only | Print | Product List | Glossary On
Versions: 1 2 3 4 5 6 7 8 9 10 11 12 13 14 15 16 17 18 19 20 21 22 23 24 25 26 27 28 29 30 31 32 33 34 35 36 37 38 39 40 41 42 43 44 45 46 47 48 49 50
000
FPUS83 KFGF 221231
OPUFGF
PRAIRIE TO PINES WEATHER ROUNDUP
NATIONAL WEATHER SERVICE EASTERN NORTH DAKOTA/GRAND FORKS ND
700 AM CDT WED OCT 22 2014

 **SATELLITE DATA USED TO AUGMENT SKY COVER AT AUTOMATED STATIONS**
 *****  WEATHER ACROSS EASTERN NORTH DAKOTA  *****

CITY           SKY/WX    TMP DP  RH WIND       PRES   REMARKS
GRAND FORKS    PTCLDY    54  42  64 S22G29    29.80F
6HR MIN TEMP:  54; 6HR MAX TEMP:  55; 6HR PCP: TRACE;

GRAND FORKS AF PTCLDY    55  43  63 S24G33    29.79S
GRAND CITY NWS   N/A     52 N/A N/A S18         N/A
BUXTON           N/A     54  44  68 SE20        N/A
DEVILS LAKE    MOCLDY    55  39  54 S17       29.71R
6HR MIN TEMP:  55; 6HR MAX TEMP:  61;

FARGO          PTCLDY    55  41  59 S24G35    29.87R
6HR MIN TEMP:  55; 6HR MAX TEMP:  56;

WAHPETON ARPT  SUNNY     50  37  62 SE20G25   29.92R
$$

 *****  WEATHER ACROSS CENTRAL AND WESTERN NORTH DAKOTA  *****

CITY           SKY/WX    TMP DP  RH WIND       PRES   REMARKS
JAMESTOWN      PTCLDY    57  40  52 S20       29.77R
6HR MIN TEMP:  56; 6HR MAX TEMP:  61;

BISMARCK       MOCLDY    57  47  69 W10       29.77R
6HR MIN TEMP:  53; 6HR MAX TEMP:  66;

MINOT          PTCLDY    53  44  71 SW12G17   29.69R
6HR MIN TEMP:  53; 6HR MAX TEMP:  67;

MINOT AFB      PTCLDY    52  47  84 W15       29.68R
6HR MIN TEMP:  51; 6HR MAX TEMP:  62; 6HR PCP: TRACE;

GARRISON         N/A     52  46  80 W14       29.74R
6HR MIN TEMP:  50; 6HR MAX TEMP:  62;

WILLISTON      MOCLDY    51  43  74 W12G22    29.79R
6HR MIN TEMP:  51; 6HR MAX TEMP:  60; 6HR PCP: TRACE;

DICKINSON      CLOUDY    50  44  80 W17G29    29.82R
6HR MIN TEMP:  49; 6HR MAX TEMP:  58;

HETTINGER      CLOUDY    50  44  80 W20       29.87R
6HR MIN TEMP:  49; 6HR MAX TEMP:  63;

$$

 *****  OTHER OBSERVATIONS NORTHEAST NORTH DAKOTA  *****

CITY           SKY/WX    TMP DP  RH WIND       PRES   REMARKS
WALHALLA       FAIR      54  41  62 SE15G23   29.71F
LANGDON        FAIR      54  41  62 S22G28    29.71F
CAVALIER       FAIR      54  41  62 S17       29.75S
GRAFTON        FAIR      54  41  62 S20G25    29.77F
CANDO          FAIR      54  45  71 S14       29.70R
FORT TOTTEN      N/A     56  43  61 S16       29.95
ROLLA          FAIR      52  45  76 S13       29.68R
RUGBY          FAIR      54  45  71 S9        29.69R
 ***** THE ABOVE OBSERVATIONS ARE NON NWS ARE NOT QUALITY
        CONTROLLED AND MAY MIS-REPORT RAIN FOR SNOW...
$$

 *****  OTHER OBSERVATIONS SOUTHEAST NORTH DAKOTA *****

CITY           SKY/WX    TMP DP  RH WIND       PRES   REMARKS
COOPERSTOWN    NOT AVBL
VALLEY CITY    FAIR      52  43  71 S13       29.80S
OAKES            N/A     55  45  67 S14       29.81F HAZE
GWINNER        SUNNY     52  43  71 SE10      29.85S
BUFFALO          N/A     54  39  57 SE18        N/A
WYNDMERE         N/A     54  43  66 SE14        N/A
 ***** THE ABOVE OBSERVATIONS ARE NON NWS ARE NOT QUALITY
       CONTROLLED AND MAY MIS-REPORT RAIN FOR SNOW...
$$

  *****  WEATHER ACROSS NORTHERN MINNESOTA  *****

CITY           SKY/WX    TMP DP  RH WIND       PRES   REMARKS
FLAG ISLAND    CLEAR     46  41  81 S25       29.91S
WARROAD        PTCLDY    48  43  81 S12G20    29.91S
ROSEAU         PTCLDY    52  43  71 S13       29.89R
HALLOCK        PTCLDY    55  41  58 S22G29    29.79F
THF RVR FALLS  CLOUDY    54  39  58 S15G22    29.88R
6HR MIN TEMP:  52; 6HR MAX TEMP:  54;

HALSTAD          N/A     56  39  54 S26         N/A
FOSSTON        PTCLDY    50  37  62 SE16G22   29.90F
BAUDETTE       CLEAR     44  38  79 SE9       29.96F
6HR MIN TEMP:  42; 6HR MAX TEMP:  45;

WASKISH        CLEAR     45  39  81 SE13G22   29.97F
CROOKSTON      PTCLDY    54  43  66 S24       29.86S
$$
  *****  WEATHER ACROSS CENTRAL AND WEST MINNESOTA  *****

CITY           SKY/WX    TMP DP  RH WIND       PRES   REMARKS
BEMIDJI        PTCLDY    45  39  79 SE18      29.98F
PARK RAPIDS    MOCLDY    45  38  76 SE21      30.02S
6HR MIN TEMP:  44; 6HR MAX TEMP:  47;

WADENA         MOCLDY    45  37  76 SE14G20   30.01F
DETROIT LAKES  PTCLDY    48  41  76 SE17G23   29.95F
MOORHEAD       PTCLDY    54  45  71 SE21G28   29.90R
FERGUS FALLS   CLEAR     52  37  58 SE20G29   29.95S
ELBOW LAKE     FAIR      49  40  72 SE23G32   29.95S
6HR MIN TEMP:  49; 6HR MAX TEMP:  53;

MORRIS MN      PTCLDY    48  39  71 SE24G30   29.96S
STAPLES        CLEAR     43  37  81 SE12      30.05S
WHEATON        PTCLDY    48  39  71 SE18G26   29.94R
$$
  *****  WEATHER ELSEWHERE ACROSS MINNESOTA  *****

CITY           SKY/WX    TMP DP  RH WIND       PRES   REMARKS
DULUTH         CLEAR     39  33  79 SE10      30.19F
6HR MIN TEMP:  39; 6HR MAX TEMP:  41;

INTRNTL FALLS  CLEAR     42  36  79 S9        30.05F
6HR MIN TEMP:  39; 6HR MAX TEMP:  42;

ELY            CLEAR     37  36  93 S7        30.18R
CLOQUET        CLEAR     36  34  93 SE3       30.19S
BRAINERD       CLEAR     42  36  79 SE14      30.10F
6HR MIN TEMP:  42; 6HR MAX TEMP:  46;

HIBBING        CLEAR     36  33  89 SE7       30.16S
6HR MIN TEMP:  32; 6HR MAX TEMP:  37;

ALEXANDRIA     CLOUDY    47  39  74 SE22      30.03F
6HR MIN TEMP:  46; 6HR MAX TEMP:  49;

SAINT CLOUD    CLEAR     44  37  76 SE13      30.13F
6HR MIN TEMP:  43; 6HR MAX TEMP:  48;

MINNEAPOLIS    PTCLDY    39  35  86 SE9       30.21S
6HR MIN TEMP:  39; 6HR MAX TEMP:  45;

$$

  *****  WEATHER ACROSS SOUTH DAKOTA  *****

CITY           SKY/WX    TMP DP  RH WIND       PRES   REMARKS
SIOUX FALLS    PTCLDY    53  44  71 S13G23    30.00S
6HR MIN TEMP:  52; 6HR MAX TEMP:  55;

BROOKINGS      NOT AVBL
WATERTOWN      CLEAR     52  43  71 S24       29.90S
6HR MIN TEMP:  52; 6HR MAX TEMP:  55;

HURON          PTCLDY    55  42  61 S20G26    29.85F
6HR MIN TEMP:  55; 6HR MAX TEMP:  60;

SISSETON         N/A     51  43  74 S13       29.89R
ABERDEEN       CLEAR     57  43  59 S16G29    29.83R
6HR MIN TEMP:  57; 6HR MAX TEMP:  63;

MITCHELL       CLEAR     55  43  63 SE21G28   29.90S
PIERRE         PTCLDY    56  52  86 NW8       29.79R
6HR MIN TEMP:  55; 6HR MAX TEMP:  63;

MOBRIDGE       MOCLDY    57  52  83 CALM      29.78R
RAPID CITY     CLOUDY    55  33  43 N15G26    29.91R
6HR MIN TEMP:  55; 6HR MAX TEMP:  67;

$$

  *****  SOME WEATHER IN NEARBY STATES *****

CITY           SKY/WX    TMP DP  RH WIND       PRES   REMARKS
GLASGOW MT     CLOUDY    50  39  66 W12       29.80R
6HR MIN TEMP:  47; 6HR MAX TEMP:  51;

GREAT FALLS MT CLEAR     41  33  73 SW13      29.93S
6HR MIN TEMP:  39; 6HR MAX TEMP:  43;

CHEYENNE WY    CLOUDY    50  36  58 N6        30.06R
6HR MIN TEMP:  46; 6HR MAX TEMP:  52; 6HR PCP:  0.02;

SCOTTSBLUFF NE CLOUDY    50  47  89 NW7       29.97R
6HR MIN TEMP:  50; 6HR MAX TEMP:  62; 6HR PCP:  0.11;

OMAHA NE       PTCLDY    55  44  66 SE16      30.11S
6HR MIN TEMP:  54; 6HR MAX TEMP:  57;

DES MOINES IA  PTCLDY    44  38  79 SE10      30.23R
6HR MIN TEMP:  44; 6HR MAX TEMP:  50;

DAVENPORT IA   PTCLDY    35  32  88 E5        30.32R
6HR MIN TEMP:  34; 6HR MAX TEMP:  38;

CHICAGO IL     PTCLDY    41  38  89 NW5       30.32R
6HR MIN TEMP:  41; 6HR MAX TEMP:  49;

EAU CLAIRE WI  CLEAR     37  33  85 SE6       30.28S
6HR MIN TEMP:  36; 6HR MAX TEMP:  41;

LA CROSSE WI   CLEAR     36  33  89 SE6       30.31R
6HR MIN TEMP:  36; 6HR MAX TEMP:  41;

$$

  *****  SOME NATIONAL WEATHER *****

CITY           SKY/WX    TMP DP  RH WIND       PRES   REMARKS
LA GUARDIA NY  LGT RAIN  55  52  89 N16       29.92R



USA.gov is the U.S. government's official web portal to all federal, state and local government web resources and services.